QPF
0.00 0.00 0.00 0.00 0.00 0.00 0.00 0.00 0.00 0.00 0.00 0.00 0.00 0.00 0.00 0.00 0.00 0.01 0.01 0.02 0.04 0.03 0.02 0.01 0.03 0.03 0.05 0.04 0.04 0.04 0.08 0.11 0.11 0.10 0.07 0.05 0.07 0.06 0.05 0.06 0.06 0.05 0.03
0.00 0.00 0.00 0.00 0.00 0.00 0.00 0.00 0.00 0.00 0.00 0.00 0.00 0.00 0.00 0.00 0.00 0.00 0.00 0.02 0.03 0.03 0.02 0.03 0.03 0.03 0.03 0.04 0.04 0.04 0.06 0.08 0.10 0.11 0.07 0.04 0.06 0.06 0.06 0.08 0.08 0.06 0.05
0.00 0.00 0.00 0.00 0.00 0.00 0.00 0.00 0.00 0.00 0.00 0.00 0.00 0.00 0.00 0.00 0.00 0.00 0.00 0.01 0.02 0.03 0.02 0.03 0.03 0.03 0.02 0.02 0.03 0.04 0.04 0.05 0.08 0.10 0.08 0.05 0.05 0.05 0.05 0.05 0.07 0.08 0.06
0.00 0.00 0.00 0.00 0.00 0.00 0.00 0.00 0.00 0.00 0.00 0.00 0.00 0.00 0.00 0.00 0.00 0.00 0.00 0.00 0.00 0.00 0.00 0.01 0.01 0.02 0.02 0.02 0.03 0.04 0.05 0.06 0.07 0.08 0.08 0.06 0.06 0.05 0.05 0.04 0.04 0.05 0.05
0.00 0.00 0.00 0.00 0.00 0.00 0.00 0.00 0.00 0.00 0.00 0.00 0.00 0.00 0.00 0.00 0.00 0.01 0.00 0.00 0.00 0.00 0.00 0.00 0.00 0.01 0.01 0.01 0.01 0.02 0.04 0.06 0.07 0.06 0.06 0.06 0.05 0.06 0.05 0.05 0.04 0.04 0.03
0.00 0.00 0.00 0.00 0.00 0.00 0.00 0.00 0.00 0.00 0.00 0.00 0.00 0.00 0.00 0.00 0.01 0.01 0.00 0.00 0.00 0.00 0.00 0.00 0.00 0.00 0.00 0.00 0.00 0.01 0.02 0.03 0.05 0.06 0.06 0.05 0.04 0.04 0.05 0.05 0.06 0.04 0.02
0.00 0.00 0.00 0.00 0.00 0.00 0.00 0.00 0.00 0.00 0.00 0.00 0.00 0.00 0.00 0.01 0.01 0.01 0.01 0.00 0.00 0.00 0.00 0.00 0.00 0.00 0.00 0.00 0.00 0.00 0.00 0.00 0.01 0.03 0.05 0.06 0.04 0.03 0.03 0.03 0.04 0.04 0.03
0.00 0.00 0.00 0.00 0.00 0.00 0.00 0.00 0.00 0.00 0.00 0.00 0.00 0.01 0.01 0.01 0.01 0.01 0.01 0.01 0.00 0.00 0.00 0.00 0.00 0.00 0.00 0.00 0.01 0.01 0.00 0.00 0.00 0.01 0.02 0.04 0.03 0.02 0.03 0.03 0.04 0.04 0.03
0.00 0.00 0.00 0.00 0.00 0.00 0.00 0.00 0.00 0.00 0.00 0.00 0.00 0.01 0.01 0.01 0.01 0.01 0.02 0.02 0.01 0.00 0.00 0.00 0.00 0.00 0.00 0.00 0.01 0.01 0.00 0.00 0.00 0.01 0.01 0.02 0.02 0.03 0.03 0.04 0.05 0.05 0.05
0.00 0.00 0.00 0.00 0.00 0.00 0.00 0.00 0.00 0.00 0.00 0.00 0.00 0.01 0.01 0.01 0.01 0.02 0.03 0.02 0.02 0.01 0.00 0.00 0.00 0.00 0.00 0.00 0.00 0.01 0.00 0.00 0.00 0.00 0.01 0.01 0.02 0.02 0.02 0.03 0.05 0.06 0.06
0.00 0.00 0.00 0.00 0.00 0.00 0.00 0.00 0.00 0.00 0.00 0.00 0.00 0.00 0.01 0.01 0.01 0.02 0.03 0.03 0.03 0.02 0.01 0.00 0.00 0.00 0.00 0.00 0.00 0.01 0.00 0.01 0.01 0.00 0.00 0.01 0.01 0.01 0.02 0.02 0.02 0.05 0.07
0.00 0.00 0.00 0.00 0.00 0.00 0.00 0.00 0.00 0.00 0.00 0.00 0.00 0.00 0.01 0.01 0.02 0.02 0.03 0.03 0.03 0.03 0.02 0.01 0.01 0.00 0.00 0.00 0.01 0.01 0.00 0.00 0.00 0.01 0.01 0.01 0.01 0.01 0.00 0.01 0.02 0.02 0.03
0.00 0.00 0.00 0.00 0.00 0.00 0.00 0.00 0.00 0.00 0.00 0.00 0.00 0.00 0.01 0.01 0.02 0.03 0.03 0.04 0.04 0.04 0.02 0.02 0.01 0.01 0.01 0.00 0.01 0.01 0.01 0.00 0.00 0.00 0.00 0.01 0.01 0.01 0.01 0.01 0.01 0.01 0.02
0.00 0.00 0.00 0.00 0.00 0.00 0.00 0.00 0.00 0.00 0.00 0.00 0.00 0.00 0.01 0.01 0.02 0.03 0.04 0.05 0.05 0.05 0.04 0.03 0.02 0.01 0.01 0.01 0.01 0.01 0.01 0.01 0.00 0.00 0.00 0.00 0.00 0.01 0.01 0.01 0.01 0.01 0.01
0.00 0.00 0.00 0.00 0.00 0.00 0.00 0.00 0.00 0.00 0.00 0.00 0.00 0.00 0.01 0.02 0.03 0.04 0.06 0.06 0.07 0.07 0.07 0.05 0.03 0.02 0.01 0.01 0.02 0.01 0.01 0.01 0.01 0.00 0.00 0.01 0.01 0.01 0.01 0.01 0.01 0.01 0.01
0.00 0.00 0.00 0.00 0.00 0.00 0.00 0.00 0.00 0.00 0.00 0.00 0.00 0.00 0.01 0.01 0.03 0.04 0.05 0.05 0.07 0.08 0.08 0.07 0.04 0.03 0.03 0.03 0.03 0.03 0.03 0.02 0.02 0.02 0.02 0.02 0.02 0.02 0.02 0.02 0.01 0.01 0.01
0.00 0.00 0.00 0.00 0.00 0.00 0.00 0.00 0.00 0.00 0.00 0.00 0.00 0.00 0.01 0.01 0.02 0.03 0.04 0.05 0.06 0.08 0.08 0.07 0.05 0.04 0.03 0.04 0.05 0.06 0.06 0.05 0.05 0.04 0.03 0.03 0.02 0.02 0.02 0.02 0.02 0.02 0.01
0.00 0.00 0.00 0.00 0.00 0.00 0.00 0.00 0.00 0.00 0.00 0.00 0.00 0.00 0.01 0.01 0.02 0.03 0.05 0.06 0.07 0.07 0.08 0.08 0.07 0.05 0.04 0.05 0.06 0.07 0.08 0.08 0.08 0.07 0.05 0.04 0.03 0.03 0.03 0.03 0.02 0.02 0.02
0.00 0.00 0.00 0.00 0.00 0.00 0.00 0.00 0.00 0.00 0.00 0.00 0.00 0.00 0.01 0.01 0.02 0.03 0.05 0.07 0.08 0.08 0.08 0.09 0.09 0.08 0.07 0.07 0.08 0.09 0.09 0.09 0.10 0.09 0.08 0.06 0.05 0.03 0.03 0.03 0.03 0.03 0.03
0.00 0.00 0.00 0.00 0.00 0.00 0.00 0.00 0.00 0.00 0.00 0.00 0.00 0.01 0.01 0.01 0.02 0.03 0.05 0.07 0.08 0.08 0.09 0.09 0.10 0.10 0.09 0.09 0.10 0.11 0.11 0.11 0.11 0.12 0.11 0.09 0.07 0.05 0.03 0.03 0.03 0.03 0.03
0.00 0.00 0.00 0.00 0.00 0.00 0.00 0.00 0.00 0.00 0.00 0.00 0.00 0.00 0.00 0.01 0.02 0.04 0.06 0.07 0.09 0.09 0.09 0.11 0.12 0.12 0.11 0.10 0.11 0.12 0.12 0.12 0.13 0.14 0.14 0.12 0.09 0.07 0.04 0.03 0.03 0.03 0.03
0.00 0.00 0.00 0.00 0.00 0.00 0.00 0.00 0.00 0.00 0.00 0.00 0.00 0.00 0.00 0.01 0.01 0.03 0.05 0.07 0.09 0.10 0.10 0.11 0.12 0.14 0.13 0.12 0.12 0.12 0.12 0.11 0.12 0.14 0.16 0.15 0.12 0.10 0.07 0.04 0.03 0.03 0.03
0.00 0.00 0.00 0.00 0.00 0.00 0.00 0.00 0.00 0.00 0.00 0.00 0.00 0.00 0.00 0.01 0.01 0.02 0.04 0.06 0.08 0.10 0.11 0.11 0.11 0.13 0.13 0.13 0.13 0.13 0.12 0.11 0.11 0.12 0.14 0.16 0.15 0.13 0.11 0.08 0.05 0.04 0.03
0.00 0.00 0.00 0.00 0.00 0.00 0.00 0.00 0.00 0.00 0.00 0.00 0.00 0.00 0.00 0.01 0.01 0.02 0.03 0.05 0.07 0.10 0.12 0.11 0.11 0.11 0.11 0.11 0.12 0.12 0.11 0.10 0.11 0.13 0.14 0.15 0.15 0.14 0.14 0.12 0.08 0.05 0.05
0.00 0.00 0.00 0.00 0.00 0.00 0.00 0.00 0.00 0.00 0.00 0.00 0.00 0.00 0.01 0.01 0.01 0.02 0.02 0.03 0.05 0.08 0.12 0.12 0.11 0.10 0.10 0.10 0.10 0.10 0.11 0.12 0.12 0.13 0.13 0.14 0.15 0.14 0.13 0.13 0.10 0.07 0.05
0.00 0.00 0.00 0.00 0.00 0.01 0.01 0.01 0.01 0.01 0.01 0.01 0.00 0.01 0.01 0.01 0.01 0.02 0.02 0.03 0.05 0.07 0.10 0.11 0.11 0.10 0.09 0.09 0.10 0.10 0.11 0.12 0.13 0.12 0.13 0.13 0.13 0.12 0.11 0.11 0.10 0.09 0.06
MSLP
1011.93 1012.24 1012.53 1012.78 1012.97 1013.10 1013.19 1013.27 1013.36 1013.47 1013.62 1013.80 1014.01 1014.21 1014.40 1014.56 1014.67 1014.75 1014.80 1014.83 1014.87 1014.94 1015.03 1015.15 1015.29 1015.43 1015.57 1015.68 1015.76 1015.81 1015.84 1015.85 1015.86 1015.87 1015.87 1015.89 1015.90 1015.91 1015.91 1015.91 1015.91 1015.92 1015.94
1011.81 1012.06 1012.31 1012.52 1012.69 1012.83 1012.93 1013.03 1013.13 1013.27 1013.43 1013.63 1013.84 1014.06 1014.27 1014.44 1014.58 1014.68 1014.76 1014.82 1014.87 1014.93 1015.01 1015.11 1015.22 1015.33 1015.44 1015.55 1015.64 1015.72 1015.80 1015.86 1015.91 1015.96 1016.01 1016.03 1016.04 1016.03 1016.00 1015.97 1015.93 1015.91 1015.91
1011.79 1012.00 1012.20 1012.39 1012.54 1012.66 1012.76 1012.85 1012.96 1013.09 1013.25 1013.44 1013.65 1013.87 1014.07 1014.26 1014.42 1014.55 1014.65 1014.74 1014.81 1014.88 1014.95 1015.04 1015.13 1015.23 1015.33 1015.44 1015.54 1015.65 1015.76 1015.87 1015.97 1016.05 1016.12 1016.15 1016.15 1016.11 1016.05 1015.98 1015.91 1015.85 1015.83
1011.91 1012.09 1012.26 1012.41 1012.53 1012.63 1012.70 1012.77 1012.85 1012.95 1013.09 1013.24 1013.43 1013.62 1013.82 1014.01 1014.18 1014.33 1014.46 1014.57 1014.66 1014.75 1014.83 1014.91 1015.00 1015.09 1015.19 1015.30 1015.43 1015.56 1015.71 1015.85 1015.98 1016.09 1016.17 1016.21 1016.19 1016.14 1016.05 1015.94 1015.83 1015.75 1015.71
1012.17 1012.32 1012.46 1012.58 1012.67 1012.73 1012.77 1012.79 1012.83 1012.88 1012.96 1013.06 1013.20 1013.36 1013.53 1013.71 1013.88 1014.03 1014.18 1014.31 1014.42 1014.52 1014.61 1014.70 1014.79 1014.88 1014.99 1015.11 1015.25 1015.41 1015.57 1015.75 1015.90 1016.04 1016.13 1016.16 1016.14 1016.07 1015.97 1015.84 1015.71 1015.62 1015.57
1012.53 1012.67 1012.80 1012.89 1012.94 1012.95 1012.94 1012.91 1012.89 1012.87 1012.89 1012.93 1013.01 1013.11 1013.24 1013.39 1013.54 1013.69 1013.84 1013.98 1014.10 1014.21 1014.31 1014.39 1014.48 1014.57 1014.68 1014.80 1014.95 1015.12 1015.31 1015.50 1015.68 1015.82 1015.93 1015.98 1015.97 1015.90 1015.80 1015.67 1015.54 1015.44 1015.39
1012.96 1013.10 1013.21 1013.27 1013.29 1013.26 1013.20 1013.12 1013.03 1012.95 1012.89 1012.87 1012.88 1012.93 1013.01 1013.11 1013.24 1013.37 1013.50 1013.63 1013.75 1013.84 1013.93 1014.01 1014.08 1014.16 1014.25 1014.37 1014.51 1014.68 1014.87 1015.07 1015.26 1015.43 1015.55 1015.62 1015.64 1015.60 1015.52 1015.42 1015.32 1015.24 1015.20
1013.40 1013.54 1013.63 1013.67 1013.66 1013.60 1013.50 1013.37 1013.24 1013.11 1013.00 1012.91 1012.87 1012.87 1012.89 1012.95 1013.04 1013.13 1013.23 1013.33 1013.41 1013.48 1013.54 1013.58 1013.62 1013.66 1013.72 1013.80 1013.92 1014.07 1014.25 1014.44 1014.64 1014.82 1014.98 1015.08 1015.14 1015.16 1015.13 1015.08 1015.02 1014.98 1014.97
1013.79 1013.92 1014.01 1014.04 1014.01 1013.93 1013.81 1013.66 1013.50 1013.34 1013.20 1013.08 1013.00 1012.95 1012.94 1012.95 1012.99 1013.04 1013.09 1013.14 1013.17 1013.19 1013.18 1013.16 1013.14 1013.12 1013.12 1013.16 1013.22 1013.33 1013.48 1013.65 1013.84 1014.04 1014.22 1014.37 1014.49 1014.57 1014.62 1014.64 1014.65 1014.67 1014.70
1014.08 1014.21 1014.30 1014.32 1014.29 1014.21 1014.09 1013.95 1013.79 1013.63 1013.48 1013.36 1013.26 1013.19 1013.15 1013.13 1013.12 1013.12 1013.12 1013.10 1013.06 1013.00 1012.91 1012.81 1012.71 1012.61 1012.52 1012.48 1012.47 1012.52 1012.61 1012.75 1012.92 1013.12 1013.32 1013.52 1013.70 1013.85 1013.98 1014.09 1014.19 1014.27 1014.36
1014.25 1014.39 1014.47 1014.51 1014.49 1014.42 1014.33 1014.21 1014.08 1013.94 1013.82 1013.71 1013.63 1013.56 1013.50 1013.45 1013.41 1013.36 1013.29 1013.20 1013.09 1012.94 1012.76 1012.56 1012.36 1012.16 1011.97 1011.83 1011.73 1011.69 1011.72 1011.80 1011.94 1012.12 1012.33 1012.56 1012.79 1013.01 1013.22 1013.42 1013.60 1013.77 1013.93
1014.30 1014.45 1014.54 1014.59 1014.59 1014.56 1014.50 1014.42 1014.33 1014.25 1014.16 1014.09 1014.03 1013.98 1013.92 1013.86 1013.79 1013.70 1013.58 1013.42 1013.22 1012.98 1012.71 1012.42 1012.11 1011.80 1011.51 1011.26 1011.06 1010.92 1010.86 1010.87 1010.94 1011.08 1011.27 1011.51 1011.77 1012.04 1012.33 1012.60 1012.87 1013.12 1013.35
1014.25 1014.40 1014.51 1014.58 1014.61 1014.61 1014.59 1014.56 1014.52 1014.49 1014.45 1014.43 1014.40 1014.37 1014.33 1014.27 1014.18 1014.05 1013.89 1013.67 1013.40 1013.09 1012.73 1012.35 1011.94 1011.53 1011.14 1010.78 1010.48 1010.24 1010.07 1009.98 1009.97 1010.05 1010.19 1010.40 1010.65 1010.95 1011.28 1011.62 1011.96 1012.30 1012.61
1014.11 1014.28 1014.40 1014.49 1014.55 1014.58 1014.60 1014.61 1014.61 1014.62 1014.64 1014.65 1014.65 1014.65 1014.62 1014.56 1014.47 1014.32 1014.12 1013.86 1013.55 1013.18 1012.76 1012.30 1011.82 1011.33 1010.85 1010.40 1010.00 1009.65 1009.37 1009.17 1009.05 1009.02 1009.08 1009.22 1009.44 1009.72 1010.06 1010.44 1010.84 1011.26 1011.66
1013.90 1014.09 1014.23 1014.34 1014.42 1014.47 1014.51 1014.55 1014.58 1014.62 1014.66 1014.70 1014.72 1014.74 1014.72 1014.67 1014.57 1014.41 1014.20 1013.92 1013.57 1013.17 1012.72 1012.22 1011.69 1011.15 1010.61 1010.09 1009.59 1009.14 1008.75 1008.43 1008.18 1008.03 1007.96 1008.00 1008.13 1008.36 1008.67 1009.06 1009.51 1009.99 1010.49
1013.64 1013.84 1014.00 1014.13 1014.21 1014.28 1014.33 1014.37 1014.41 1014.45 1014.49 1014.54 1014.57 1014.58 1014.57 1014.52 1014.42 1014.27 1014.05 1013.76 1013.42 1013.01 1012.55 1012.05 1011.51 1010.95 1010.37 1009.80 1009.24 1008.71 1008.21 1007.76 1007.37 1007.06 1006.85 1006.74 1006.75 1006.88 1007.13 1007.49 1007.96 1008.50 1009.10
1013.30 1013.53 1013.71 1013.84 1013.93 1013.99 1014.04 1014.07 1014.09 1014.12 1014.15 1014.17 1014.19 1014.20 1014.18 1014.12 1014.02 1013.87 1013.66 1013.39 1013.06 1012.67 1012.23 1011.75 1011.23 1010.68 1010.11 1009.52 1008.92 1008.31 1007.72 1007.15 1006.62 1006.15 1005.76 1005.49 1005.34 1005.34 1005.49 1005.80 1006.26 1006.84 1007.52
1012.87 1013.12 1013.31 1013.45 1013.55 1013.60 1013.63 1013.64 1013.64 1013.64 1013.64 1013.64 1013.63 1013.61 1013.58 1013.51 1013.41 1013.26 1013.06 1012.81 1012.51 1012.16 1011.76 1011.33 1010.85 1010.34 1009.80 1009.21 1008.60 1007.95 1007.29 1006.61 1005.95 1005.32 1004.76 1004.30 1003.98 1003.82 1003.85 1004.07 1004.49 1005.08 1005.82
1012.32 1012.59 1012.80 1012.96 1013.05 1013.10 1013.12 1013.10 1013.08 1013.04 1013.00 1012.96 1012.93 1012.88 1012.82 1012.74 1012.63 1012.48 1012.30 1012.07 1011.81 1011.50 1011.16 1010.79 1010.37 1009.93 1009.43 1008.89 1008.28 1007.62 1006.91 1006.16 1005.38 1004.61 1003.89 1003.26 1002.76 1002.43 1002.31 1002.42 1002.77 1003.33 1004.10
1011.62 1011.92 1012.15 1012.33 1012.44 1012.49 1012.50 1012.47 1012.42 1012.35 1012.28 1012.21 1012.14 1012.06 1011.98 1011.88 1011.76 1011.62 1011.44 1011.24 1011.01 1010.75 1010.46 1010.16 1009.82 1009.44 1009.01 1008.52 1007.96 1007.32 1006.59 1005.80 1004.94 1004.06 1003.20 1002.41 1001.75 1001.26 1000.98 1000.96 1001.21 1001.71 1002.46
1010.77 1011.10 1011.37 1011.57 1011.70 1011.77 1011.78 1011.75 1011.69 1011.61 1011.51 1011.42 1011.32 1011.22 1011.11 1011.00 1010.87 1010.72 1010.55 1010.36 1010.16 1009.94 1009.70 1009.45 1009.18 1008.88 1008.53 1008.11 1007.61 1007.01 1006.31 1005.51 1004.62 1003.68 1002.72 1001.81 1001.01 1000.37 999.95 999.79 999.91 1000.33 1001.02
1009.80 1010.16 1010.47 1010.71 1010.87 1010.97 1011.00 1010.98 1010.92 1010.83 1010.73 1010.62 1010.51 1010.39 1010.27 1010.14 1009.99 1009.84 1009.67 1009.48 1009.29 1009.09 1008.89 1008.69 1008.48 1008.24 1007.96 1007.62 1007.19 1006.66 1006.01 1005.24 1004.37 1003.41 1002.41 1001.43 1000.54 999.78 999.24 998.95 998.94 999.24 999.84
1008.76 1009.16 1009.51 1009.79 1009.99 1010.12 1010.18 1010.18 1010.13 1010.05 1009.95 1009.84 1009.72 1009.60 1009.46 1009.32 1009.17 1009.00 1008.81 1008.62 1008.42 1008.23 1008.04 1007.85 1007.67 1007.48 1007.26 1006.99 1006.63 1006.18 1005.61 1004.91 1004.09 1003.17 1002.19 1001.20 1000.26 999.45 998.82 998.43 998.31 998.49 998.97
1007.75 1008.19 1008.57 1008.89 1009.13 1009.28 1009.37 1009.39 1009.36 1009.29 1009.19 1009.09 1008.97 1008.84 1008.70 1008.55 1008.38 1008.19 1007.99 1007.77 1007.55 1007.33 1007.12 1006.92 1006.74 1006.56 1006.37 1006.14 1005.85 1005.48 1004.99 1004.38 1003.65 1002.82 1001.91 1000.97 1000.06 999.24 998.58 998.13 997.93 998.01 998.39
1006.85 1007.32 1007.73 1008.07 1008.32 1008.50 1008.60 1008.63 1008.61 1008.55 1008.47 1008.37 1008.26 1008.13 1007.99 1007.83 1007.64 1007.43 1007.19 1006.93 1006.66 1006.39 1006.13 1005.89 1005.66 1005.46 1005.26 1005.04 1004.79 1004.47 1004.07 1003.56 1002.94 1002.22 1001.43 1000.59 999.77 999.02 998.39 997.93 997.70 997.72 998.01
1006.15 1006.62 1007.04 1007.38 1007.64 1007.81 1007.91 1007.93 1007.91 1007.86 1007.78 1007.68 1007.58 1007.45 1007.31 1007.14 1006.94 1006.70 1006.41 1006.10 1005.76 1005.41 1005.07 1004.74 1004.44 1004.16 1003.91 1003.67 1003.41 1003.12 1002.78 1002.36 1001.86 1001.28 1000.63 999.95 999.26 998.63 998.09 997.70 997.50 997.51 997.76
Thickness
5739 5738 5736 5735 5733 5731 5728 5725 5722 5720 5718 5716 5713 5710 5707 5705 5702 5698 5695 5693 5691 5689 5689 5687 5686 5686 5684 5684 5685 5685 5685 5684 5681 5685 5691 5695 5698 5700 5702 5705 5707 5709 5711
5737 5736 5734 5733 5731 5728 5726 5724 5722 5720 5718 5716 5713 5710 5707 5705 5702 5699 5695 5694 5691 5689 5688 5688 5686 5686 5684 5684 5683 5683 5684 5685 5683 5682 5686 5691 5694 5697 5699 5701 5704 5706 5707
5734 5732 5730 5729 5727 5725 5724 5723 5721 5719 5716 5715 5712 5709 5706 5704 5702 5700 5697 5695 5693 5691 5689 5688 5686 5685 5683 5683 5682 5682 5683 5685 5684 5683 5683 5687 5690 5693 5694 5697 5699 5701 5703
5729 5727 5724 5723 5723 5721 5721 5719 5718 5716 5713 5712 5710 5708 5706 5704 5702 5699 5698 5695 5693 5692 5691 5689 5687 5686 5683 5682 5681 5681 5681 5681 5682 5681 5681 5683 5685 5689 5690 5689 5691 5694 5697
5725 5722 5719 5719 5718 5717 5715 5714 5712 5711 5710 5708 5706 5704 5703 5702 5700 5698 5695 5694 5692 5691 5691 5690 5689 5687 5685 5683 5681 5679 5679 5678 5677 5677 5677 5678 5679 5681 5683 5685 5685 5688 5690
5720 5717 5716 5714 5712 5710 5709 5708 5706 5705 5704 5702 5700 5698 5697 5697 5697 5695 5693 5691 5690 5689 5688 5688 5688 5686 5684 5682 5680 5678 5677 5675 5674 5674 5674 5674 5677 5679 5680 5681 5680 5680 5680
5716 5713 5711 5709 5706 5705 5704 5702 5700 5698 5697 5695 5694 5692 5691 5690 5690 5689 5688 5686 5686 5685 5685 5685 5686 5686 5683 5680 5678 5677 5675 5674 5674 5672 5672 5673 5676 5678 5678 5677 5677 5676 5677
5709 5706 5704 5702 5700 5698 5697 5695 5693 5692 5690 5688 5687 5686 5685 5685 5684 5683 5682 5681 5680 5682 5682 5682 5682 5682 5681 5678 5675 5673 5672 5672 5672 5672 5672 5674 5675 5676 5676 5675 5675 5674 5676
5701 5698 5697 5696 5693 5691 5688 5687 5686 5684 5682 5680 5679 5678 5676 5676 5676 5675 5673 5672 5673 5676 5678 5679 5679 5678 5678 5676 5672 5669 5668 5669 5670 5670 5670 5671 5671 5672 5672 5670 5669 5667 5665
5694 5692 5690 5689 5686 5683 5681 5679 5678 5675 5673 5671 5670 5668 5667 5666 5666 5664 5662 5662 5663 5666 5670 5673 5674 5674 5674 5672 5668 5666 5663 5664 5665 5664 5664 5664 5665 5666 5666 5665 5664 5662 5661
5689 5686 5684 5682 5679 5677 5674 5671 5668 5665 5663 5660 5659 5658 5656 5654 5653 5652 5650 5648 5650 5653 5657 5662 5665 5666 5666 5665 5664 5662 5662 5661 5660 5660 5659 5659 5659 5660 5660 5660 5661 5660 5658
5682 5679 5677 5675 5673 5670 5665 5662 5658 5654 5650 5647 5645 5644 5642 5641 5639 5637 5636 5635 5637 5639 5644 5649 5654 5656 5656 5656 5656 5657 5657 5655 5653 5653 5652 5653 5653 5654 5655 5655 5656 5656 5656
5674 5671 5669 5667 5664 5661 5656 5651 5647 5642 5637 5633 5630 5628 5627 5626 5624 5623 5622 5623 5623 5625 5631 5636 5639 5642 5644 5646 5647 5648 5647 5646 5645 5645 5645 5647 5649 5651 5651 5650 5650 5650 5650
5666 5663 5661 5658 5654 5650 5646 5641 5635 5629 5624 5620 5616 5613 5612 5611 5609 5607 5607 5607 5609 5612 5616 5621 5626 5630 5632 5634 5637 5638 5638 5638 5638 5639 5640 5642 5643 5644 5643 5643 5641 5640 5639
5657 5654 5651 5648 5643 5639 5635 5629 5624 5619 5613 5607 5603 5600 5597 5596 5596 5594 5591 5593 5594 5597 5599 5604 5610 5615 5618 5622 5625 5628 5629 5630 5631 5632 5633 5634 5635 5636 5636 5636 5635 5633 5632
5648 5644 5640 5636 5631 5627 5622 5618 5615 5609 5604 5599 5594 5589 5586 5584 5583 5581 5580 5581 5582 5583 5584 5589 5595 5601 5605 5609 5613 5616 5618 5621 5623 5624 5625 5626 5627 5627 5628 5628 5628 5627 5626
5637 5633 5629 5624 5619 5613 5608 5603 5599 5597 5593 5588 5583 5579 5575 5572 5570 5567 5566 5567 5568 5569 5570 5576 5581 5586 5591 5595 5599 5603 5607 5611 5614 5616 5617 5619 5619 5620 5620 5620 5621 5621 5620
5627 5622 5617 5611 5605 5600 5595 5590 5585 5581 5578 5575 5572 5568 5565 5561 5557 5554 5553 5552 5553 5555 5557 5562 5566 5571 5576 5580 5585 5589 5594 5599 5602 5606 5609 5611 5612 5613 5613 5614 5614 5614 5614
5616 5610 5604 5599 5593 5588 5583 5578 5573 5569 5565 5561 5559 5556 5552 5549 5545 5542 5538 5536 5537 5540 5543 5546 5551 5556 5561 5566 5571 5575 5580 5585 5590 5594 5599 5602 5604 5606 5606 5607 5607 5607 5607
5604 5599 5593 5586 5581 5575 5570 5565 5561 5556 5552 5547 5543 5540 5538 5534 5531 5528 5526 5524 5524 5526 5528 5531 5535 5540 5545 5551 5556 5561 5566 5571 5577 5582 5587 5591 5594 5597 5599 5600 5600 5599 5600
5592 5587 5581 5575 5569 5563 5558 5553 5548 5543 5538 5534 5530 5528 5524 5519 5517 5515 5514 5513 5512 5512 5514 5516 5520 5524 5530 5536 5541 5546 5552 5558 5564 5568 5574 5579 5583 5587 5591 5593 5593 5593 5592
5580 5574 5568 5562 5557 5551 5546 5542 5536 5531 5526 5522 5518 5516 5513 5508 5505 5503 5502 5501 5501 5500 5501 5503 5506 5510 5515 5521 5527 5532 5538 5545 5551 5556 5561 5566 5573 5576 5580 5583 5585 5585 5585
5567 5561 5556 5550 5545 5540 5535 5530 5524 5519 5514 5510 5506 5503 5500 5496 5493 5491 5489 5489 5489 5489 5490 5491 5494 5498 5503 5508 5514 5519 5525 5533 5539 5544 5549 5554 5560 5565 5569 5574 5577 5578 5578
5554 5548 5542 5537 5532 5527 5522 5518 5513 5508 5503 5499 5495 5491 5487 5485 5482 5480 5478 5477 5477 5478 5479 5480 5483 5487 5493 5497 5502 5508 5514 5521 5527 5533 5539 5544 5550 5556 5559 5563 5568 5570 5571
5541 5535 5529 5524 5519 5514 5510 5506 5501 5496 5491 5487 5483 5479 5476 5473 5471 5469 5467 5466 5466 5467 5469 5471 5474 5478 5483 5488 5493 5499 5505 5511 5517 5523 5529 5535 5540 5545 5550 5554 5558 5560 5562
5528 5522 5517 5512 5507 5502 5497 5493 5488 5484 5479 5475 5472 5468 5464 5461 5459 5458 5457 5456 5456 5458 5460 5463 5466 5470 5475 5479 5486 5492 5497 5503 5508 5515 5520 5526 5532 5537 5540 5544 5548 5550 5552